Columbus, OH

1:57 PM EDT on July 23, 2017 (GMT -0400)
Port Columbus International

Weather History for KCMH - April, 2013

Change the Weather History Date:

Saturday, April 6, 2013

  Actual Average Record
Temperature  
Mean Temperature 47 °F 50 °F  
Max Temperature 62 °F 60 °F 84 °F (2010)
Min Temperature 32 °F 40 °F 19 °F (1881)
Degree Days  
Heating Degree Days 18 16  
Month to date heating degree days 146 99  
Since 1 July heating degree days 4855 4810  
Cooling Degree Days 0 0  
Month to date cooling degree days 0 0  
Year to date cooling degree days 0 0  
Moisture  
Dew Point 16 °F    
Average Humidity 37    
Maximum Humidity 56    
Minimum Humidity 17    
Precipitation  
Precipitation 0.00 in 0.11 in 1.10 in (1938)
Month to date precipitation T 0.67  
Year to date precipitation 7.19 8.67  
Snow  
Snow 0.00 in 0.10 in 6.10 in (1886)
Month to date snowfall T 0.4  
Since 1 July snowfall 41.2 26.0  
Snow Depth 0.00 in    
Sea Level Pressure  
Sea Level Pressure 30.14 in    
Wind  
Wind Speed 9 mph (SE)    
Max Wind Speed 16 mph    
Max Gust Speed 21 mph    
Visibility 10 miles    
Events      
T = Trace of Precipitation, MM = Missing Value Source: NWS Daily Summary

Daily Weather History Graph

Daily Weather History Graph

Search for Another Location

Airport or City:

Trip Planner

Search our weather history database for the weather conditions in past years. The results will help you decide how hot, cold, wet, or windy it might be!

Date:

Astronomy

Apr. 06, 2013 Rise Set
Actual Time 7:07 AM EDT 8:01 PM EDT
Civil Twilight 6:39 AM EDT 8:28 PM EDT
Nautical Twilight 6:07 AM EDT 9:01 PM EDT
Astronomical Twilight 5:33 AM EDT 9:35 PM EDT
Moon 4:50 AM EDT (4/6) 4:28 PM EDT (4/6)
Length of Visible Light 13h 49m
Length of Day
12h 53m
Waning Crescent, 15% of the Moon is Illuminated
Apr 6
Waning Crescent
Apr 10
New
Apr 18
First Quarter
Apr 25
Full
May 2
Last Quarter

Hourly Weather History & Observations

Time (EDT) Temp. Windchill Dew Point Humidity Pressure Visibility Wind Dir Wind Speed Gust Speed Precip Events Conditions
12:51 AM 39.0 °F 33.4 °F 19.9 °F 46% 30.19 in 10.0 mi NE 8.1 mph - N/A   Clear
1:51 AM 37.0 °F 30.4 °F 21.9 °F 54% 30.19 in 10.0 mi ENE 9.2 mph - N/A   Clear
2:51 AM 36.0 °F 30.3 °F 21.9 °F 57% 30.20 in 10.0 mi ENE 6.9 mph - N/A   Clear
3:51 AM 35.1 °F 28.6 °F 19.0 °F 52% 30.20 in 10.0 mi East 8.1 mph - N/A   Clear
4:51 AM 34.0 °F 28.8 °F 15.1 °F 46% 30.20 in 10.0 mi East 5.8 mph - N/A   Clear
5:51 AM 32.0 °F 27.5 °F 14.0 °F 48% 30.22 in 10.0 mi ESE 4.6 mph - N/A   Clear
6:51 AM 32.0 °F 26.4 °F 15.1 °F 50% 30.25 in 10.0 mi ESE 5.8 mph - N/A   Scattered Clouds
7:51 AM 33.1 °F 27.7 °F 14.0 °F 46% 30.26 in 10.0 mi ESE 5.8 mph - N/A   Scattered Clouds
8:51 AM 37.9 °F 30.9 °F 14.0 °F 38% 30.28 in 10.0 mi SE 10.4 mph - N/A   Scattered Clouds
9:51 AM 42.1 °F 34.5 °F 10.0 °F 27% 30.27 in 10.0 mi SE 15.0 mph - N/A   Scattered Clouds
10:51 AM 44.1 °F 37.7 °F 12.0 °F 27% 30.26 in 10.0 mi SE 12.7 mph - N/A   Mostly Cloudy
11:51 AM 48.0 °F - 15.1 °F 27% 30.25 in 10.0 mi SE 10.4 mph - N/A   Overcast
12:51 PM 51.1 °F - 14.0 °F 23% 30.21 in 10.0 mi South 15.0 mph - N/A   Mostly Cloudy
1:51 PM 54.0 °F - 14.0 °F 21% 30.17 in 10.0 mi SSE 9.2 mph - N/A   Mostly Cloudy
2:51 PM 55.9 °F - 15.1 °F 20% 30.14 in 10.0 mi SSE 9.2 mph - N/A   Mostly Cloudy
3:51 PM 57.9 °F - 15.1 °F 19% 30.10 in 10.0 mi SE 9.2 mph - N/A   Mostly Cloudy
4:51 PM 57.9 °F - 14.0 °F 18% 30.08 in 10.0 mi SSE 9.2 mph - N/A   Overcast
5:51 PM 61.0 °F - 15.1 °F 17% 30.05 in 10.0 mi SSE 9.2 mph - N/A   Overcast
6:51 PM 61.0 °F - 16.0 °F 17% 30.01 in 10.0 mi SSE 11.5 mph - N/A   Overcast
7:51 PM 60.1 °F - 18.0 °F 20% 29.99 in 10.0 mi SE 9.2 mph - N/A   Overcast
8:51 PM 57.2 °F - 19.4 °F 23% 29.97 in 10.0 mi SE 10.4 mph - N/A   Overcast
9:51 PM 57.9 °F - 18.0 °F 21% 29.96 in 10.0 mi SE 10.4 mph - N/A   Overcast
10:51 PM 57.0 °F - 18.0 °F 22% 29.96 in 10.0 mi SE 10.4 mph - N/A   Overcast
11:51 PM 53.6 °F - 19.4 °F 26% 29.93 in 10.0 mi SSE 6.9 mph - N/A   Overcast